Wind_Speed
22 21 20 19 19 18 18 18 18 18 18 18 19 20 21 22 23 24 25 27 28 29 30 30 31 32 32 33 34 34 34 34 33 33 33 32 32 32 31 30 29 28 27
23 23 22 22 21 20 20 20 20 20 20 20 21 22 23 24 25 26 27 29 30 31 32 32 32 32 33 33 34 35 35 35 34 34 34 33 33 32 31 30 30 29 28
25 25 24 24 23 23 22 22 22 22 22 23 24 24 25 26 28 29 30 31 32 33 33 33 33 34 34 34 34 35 36 36 35 35 34 34 33 33 32 31 31 30 29
27 27 27 26 26 25 25 25 25 25 26 26 26 27 28 29 30 31 32 33 34 34 34 34 34 34 35 35 35 36 37 37 36 36 36 35 34 33 32 31 30 30 29
28 29 29 29 28 28 28 28 28 28 29 29 29 30 31 32 33 34 35 36 36 36 36 35 35 35 35 35 36 37 37 37 37 37 36 36 34 33 32 31 30 30 29
30 30 31 31 31 31 31 31 31 31 31 32 32 33 34 35 35 36 37 38 38 37 36 36 36 36 36 36 37 37 37 37 37 37 37 36 34 33 32 31 30 29 29
33 32 32 33 33 34 34 34 34 34 34 35 35 35 36 37 38 39 39 39 39 38 37 37 37 37 37 37 38 38 38 38 37 37 36 35 34 33 31 31 30 29 28
36 36 36 36 35 35 36 37 37 37 37 38 39 40 39 39 40 41 41 40 39 39 38 37 37 38 38 38 39 38 38 38 37 37 36 34 33 32 31 31 30 28 28
37 37 37 38 38 38 38 39 40 40 40 41 42 43 43 41 40 40 40 40 40 39 38 38 38 38 38 39 39 39 38 38 37 36 35 34 33 31 31 29 28 27 27
39 39 39 39 40 40 40 41 41 42 42 43 44 44 45 45 44 42 40 39 39 39 38 38 38 38 39 39 39 39 38 38 37 35 34 33 31 30 28 28 27 26 26
41 41 41 42 42 43 43 44 44 44 45 45 45 45 45 45 44 43 41 40 40 39 39 39 38 39 39 39 39 39 38 37 36 34 33 31 29 28 27 27 26 26 25
44 44 44 44 45 45 46 46 47 47 46 46 46 45 45 44 43 43 42 41 41 41 40 40 40 40 40 40 40 39 38 36 35 33 31 30 28 27 26 26 25 25 24
47 47 47 48 47 47 48 48 48 48 48 47 46 46 44 44 43 43 43 42 43 42 41 41 41 41 41 40 40 38 37 35 33 32 30 28 27 26 25 24 24 24 23
48 48 48 49 49 49 49 48 48 48 47 47 46 46 45 44 43 43 43 43 43 42 42 42 42 42 41 40 39 38 36 34 32 30 28 27 26 25 24 24 23 23 23
49 50 50 50 50 50 50 49 49 48 48 47 47 46 45 45 45 44 44 44 43 43 43 42 42 42 41 40 38 36 34 33 31 29 27 26 25 25 24 23 23 23 23
50 50 50 51 51 51 51 51 50 49 49 48 47 47 46 46 45 45 44 44 44 44 43 42 42 41 40 38 36 35 33 32 30 28 27 26 25 25 24 23 23 23 23
51 51 52 52 51 51 51 51 51 50 49 49 48 47 47 46 46 45 45 45 44 44 43 42 42 40 38 36 35 33 32 31 29 28 27 25 25 25 24 24 24 24 24
52 52 52 52 52 52 51 51 50 50 50 49 48 48 47 47 46 46 45 45 44 43 42 41 40 38 36 35 34 32 31 30 29 27 26 25 25 25 25 25 25 25 24
51 52 51 50 50 49 49 49 48 48 48 48 47 47 47 46 46 45 45 44 43 42 41 39 38 36 35 34 33 31 30 29 28 27 26 25 25 26 26 26 26 26 26
47 47 47 47 47 46 45 45 45 46 46 47 46 46 46 46 45 44 43 43 42 40 39 37 36 34 33 32 31 30 29 28 27 27 26 27 27 27 28 28 28 28 28
43 43 43 43 43 44 44 44 45 45 45 45 46 45 45 44 43 42 41 40 39 38 37 35 33 32 31 30 30 29 28 28 28 28 28 28 28 29 29 29 29 29 30
42 42 42 42 42 42 43 43 43 43 43 44 44 43 43 42 41 40 39 38 37 35 34 32 31 31 30 29 29 29 29 29 29 29 29 29 29 30 30 31 31 31 31
42 42 42 42 42 42 42 42 43 43 42 42 42 42 41 40 39 38 37 36 34 32 31 30 30 29 29 29 29 29 29 30 30 30 30 31 31 31 32 32 32 32 33
41 41 42 42 42 42 42 42 42 41 41 41 40 39 39 38 37 36 34 33 32 31 30 29 28 28 29 29 30 30 30 30 31 31 32 32 32 33 33 33 33 33 33
41 41 41 41 40 40 40 40 39 38 38 38 37 36 35 34 34 34 33 32 31 30 29 28 28 28 29 29 30 30 30 31 31 32 32 33 33 33 33 34 34 34 34
39 39 39 39 38 38 37 36 36 35 35 34 34 34 33 32 32 32 31 30 29 29 29 29 29 29 29 30 30 31 31 31 32 32 33 33 33 34 34 35 35 36 36
Wind_Direction
249 253 257 260 263 267 271 276 279 283 287 291 295 298 301 302 304 306 308 310 311 312 313 314 314 315 316 317 318 318 318 317 316 313 312 310 308 305 304 302 300 298 297
251 254 257 260 264 268 272 276 280 283 286 289 292 294 296 299 301 304 305 307 308 309 310 311 312 313 313 315 315 316 315 315 313 311 310 309 307 305 303 301 299 297 296
252 255 257 261 264 268 272 275 279 282 285 288 290 292 294 297 299 301 303 304 305 306 308 309 310 311 311 313 313 313 313 313 312 310 309 308 306 304 302 301 299 297 295
255 257 259 261 264 268 271 274 277 281 284 286 289 291 294 295 297 299 301 302 303 304 305 306 308 309 310 311 312 312 312 311 311 309 308 306 305 303 302 300 299 297 295
259 259 260 262 264 267 270 273 277 280 282 285 287 290 293 295 296 297 299 300 301 302 303 304 306 307 308 309 310 310 311 310 309 308 307 306 304 302 302 300 298 296 295
262 262 262 263 265 267 270 273 276 279 281 283 286 289 291 293 294 295 297 298 299 300 301 302 304 306 306 307 308 309 309 308 307 306 305 304 303 302 301 299 298 296 294
263 263 264 266 267 268 270 272 275 278 280 283 285 287 290 292 293 294 295 296 297 298 299 301 303 304 305 306 307 307 307 306 305 305 304 303 302 301 299 299 298 297 295
265 265 265 267 268 270 271 273 275 277 280 282 285 287 288 289 291 293 294 295 295 296 298 299 300 302 303 304 305 305 305 304 303 303 302 301 300 299 299 298 297 296 295
265 265 266 267 269 271 273 276 277 277 280 283 285 287 287 288 288 290 291 292 292 294 295 296 298 300 301 302 303 303 303 302 302 302 301 300 299 298 297 296 296 295 294
265 266 267 269 271 273 275 278 279 280 281 283 285 286 287 288 289 289 289 289 291 292 294 296 297 298 300 301 301 301 301 301 301 300 300 299 298 297 296 296 294 293 293
264 266 268 270 272 274 276 278 279 280 281 283 284 285 287 287 288 288 289 290 291 292 293 295 296 297 298 299 300 300 300 300 299 299 299 298 297 295 295 295 294 293 293
264 266 268 271 273 274 276 278 279 280 281 283 283 284 285 286 286 287 288 289 290 292 293 294 295 296 297 298 298 298 298 298 298 298 298 297 295 294 294 294 293 293 291
266 267 269 271 273 274 275 277 279 280 280 281 282 283 283 284 285 286 287 288 289 291 292 293 294 295 296 296 297 297 296 296 296 296 295 295 294 293 293 293 293 292 290
268 269 270 271 273 275 276 277 278 279 280 280 281 281 282 282 284 285 286 287 288 289 290 291 292 293 294 294 294 294 293 293 294 294 293 292 292 292 292 293 293 291 290
269 270 271 272 274 274 275 277 279 279 279 279 279 280 280 282 283 284 285 286 286 287 288 289 290 291 291 291 291 291 290 290 290 290 290 290 290 291 292 293 292 291 291
270 271 272 273 273 275 276 277 277 278 278 277 278 279 280 281 282 283 284 284 285 286 286 287 288 288 288 288 288 288 287 287 287 287 287 287 288 289 291 292 291 292 291
270 271 273 274 274 274 275 275 276 277 277 277 277 278 279 280 281 282 282 283 283 284 284 286 287 286 285 285 285 285 284 285 285 285 285 285 287 288 290 291 291 292 291
269 270 273 273 274 275 275 275 275 275 276 276 277 277 278 278 279 280 281 281 282 282 283 283 284 282 282 283 282 282 282 282 282 282 283 284 285 287 289 290 290 290 290
269 270 272 273 274 274 274 273 273 274 275 275 276 276 277 278 278 279 279 279 280 280 280 281 280 280 279 279 279 280 280 280 280 280 281 283 285 287 288 289 289 289 289
269 270 270 271 272 273 273 273 273 274 274 274 275 276 276 277 277 277 278 278 278 278 278 278 277 277 277 277 278 278 278 277 278 280 281 283 284 286 287 288 288 288 288
268 269 271 271 272 273 274 274 274 275 275 275 276 276 275 276 276 276 276 276 276 275 275 275 274 274 275 275 276 276 276 277 278 280 282 283 285 286 287 287 287 288 287
267 269 270 271 272 273 274 275 276 276 276 276 276 275 275 275 275 275 274 273 273 273 272 272 272 272 274 274 274 275 276 278 279 280 282 283 285 286 286 286 287 287 287
268 269 271 272 273 274 275 275 276 275 275 276 276 275 274 273 272 271 271 270 270 270 270 270 270 272 273 274 275 277 278 280 281 282 283 284 285 285 286 286 286 286 286
269 270 272 273 273 274 275 276 276 276 275 275 274 273 272 271 270 269 268 268 267 267 267 268 270 272 274 275 277 278 280 281 282 283 284 285 285 286 286 286 286 287 286
269 270 272 273 274 275 276 276 276 276 275 274 273 271 269 268 267 266 266 265 266 266 266 268 270 272 275 277 279 280 281 283 284 284 285 285 286 286 286 286 287 287 286
268 270 271 273 274 275 275 275 275 275 274 272 271 269 268 266 265 264 264 264 264 264 266 267 270 273 276 278 280 282 283 284 284 285 286 286 286 286 287 287 287 287 287
Height
5867 5868 5868 5869 5868 5868 5868 5868 5867 5866 5865 5864 5863 5861 5860 5858 5856 5854 5852 5850 5847 5844 5841 5838 5835 5831 5827 5823 5819 5815 5811 5807 5804 5800 5797 5793 5790 5787 5784 5781 5779 5777 5775
5863 5864 5864 5865 5864 5864 5864 5864 5863 5863 5861 5860 5859 5858 5856 5854 5852 5850 5847 5845 5842 5839 5836 5833 5829 5826 5822 5818 5814 5809 5805 5802 5798 5794 5791 5787 5784 5780 5778 5775 5773 5771 5769
5858 5859 5860 5860 5860 5860 5860 5859 5859 5858 5857 5856 5855 5853 5851 5849 5847 5845 5842 5840 5837 5834 5830 5827 5823 5820 5816 5812 5808 5803 5799 5795 5792 5788 5785 5781 5777 5774 5771 5768 5766 5764 5762
5853 5854 5854 5855 5855 5855 5855 5854 5854 5853 5852 5851 5849 5848 5846 5844 5841 5839 5836 5833 5831 5827 5824 5821 5817 5814 5810 5806 5801 5797 5793 5789 5785 5782 5778 5774 5771 5768 5765 5762 5759 5757 5755
5846 5847 5848 5848 5849 5849 5849 5849 5848 5847 5846 5845 5844 5842 5840 5837 5835 5832 5830 5827 5824 5821 5817 5814 5811 5807 5803 5799 5795 5791 5787 5782 5778 5775 5771 5767 5764 5761 5758 5755 5753 5751 5749
5840 5840 5841 5842 5842 5842 5842 5842 5842 5841 5840 5839 5837 5835 5833 5831 5828 5825 5823 5820 5817 5813 5810 5807 5804 5800 5796 5792 5788 5784 5780 5776 5771 5767 5764 5760 5757 5754 5751 5748 5746 5744 5742
5832 5833 5834 5834 5835 5835 5835 5835 5834 5834 5832 5831 5830 5829 5826 5823 5821 5818 5815 5812 5809 5806 5802 5799 5796 5792 5788 5785 5781 5777 5773 5769 5764 5761 5757 5753 5750 5747 5744 5741 5739 5737 5735
5825 5826 5826 5826 5827 5827 5827 5827 5826 5825 5824 5823 5821 5820 5819 5817 5813 5809 5806 5803 5800 5797 5795 5791 5788 5785 5781 5777 5773 5769 5766 5761 5757 5754 5750 5746 5743 5740 5737 5734 5732 5730 5728
5817 5817 5818 5818 5818 5818 5818 5818 5817 5817 5816 5814 5812 5810 5809 5808 5805 5802 5798 5795 5792 5789 5787 5783 5780 5777 5773 5769 5765 5762 5758 5754 5750 5746 5743 5739 5736 5733 5730 5727 5725 5723 5721
5808 5809 5809 5809 5809 5809 5809 5808 5808 5807 5806 5805 5802 5800 5798 5796 5794 5793 5790 5786 5783 5781 5778 5775 5771 5768 5764 5761 5757 5753 5750 5746 5742 5738 5735 5732 5729 5726 5723 5721 5719 5717 5715
5798 5799 5799 5799 5799 5799 5799 5798 5798 5797 5796 5794 5793 5791 5788 5786 5784 5782 5780 5777 5774 5771 5769 5766 5763 5759 5756 5752 5748 5745 5741 5737 5734 5731 5727 5724 5722 5719 5717 5714 5712 5710 5708
5788 5789 5789 5789 5789 5789 5789 5788 5787 5786 5785 5784 5782 5780 5778 5776 5774 5771 5769 5767 5764 5762 5759 5756 5753 5750 5746 5743 5739 5736 5732 5729 5726 5723 5720 5717 5715 5712 5710 5708 5706 5704 5702
5777 5778 5778 5779 5778 5778 5778 5777 5777 5776 5774 5773 5772 5770 5768 5766 5764 5762 5759 5757 5754 5752 5749 5746 5743 5740 5737 5734 5730 5727 5724 5721 5718 5715 5712 5710 5707 5705 5703 5701 5699 5697 5696
5767 5767 5767 5767 5767 5767 5766 5766 5765 5764 5763 5762 5761 5759 5757 5755 5753 5751 5749 5747 5744 5742 5739 5737 5734 5730 5727 5724 5721 5718 5715 5712 5710 5707 5705 5703 5700 5699 5697 5695 5693 5691 5690
5756 5756 5756 5756 5756 5755 5755 5754 5754 5753 5752 5751 5749 5748 5746 5745 5743 5741 5738 5736 5734 5732 5729 5727 5724 5721 5718 5715 5712 5709 5707 5704 5702 5699 5697 5695 5694 5692 5690 5688 5686 5685 5683
5744 5744 5744 5744 5744 5743 5743 5742 5742 5741 5740 5739 5738 5736 5735 5733 5732 5730 5727 5725 5723 5721 5719 5716 5713 5710 5708 5705 5703 5700 5698 5696 5694 5692 5690 5688 5687 5685 5683 5682 5680 5679 5677
5732 5732 5732 5732 5731 5731 5730 5730 5729 5729 5728 5727 5726 5725 5723 5722 5720 5718 5716 5714 5712 5710 5708 5705 5703 5700 5698 5696 5694 5692 5690 5688 5686 5685 5683 5681 5680 5678 5676 5675 5673 5672 5670
5720 5720 5720 5719 5719 5718 5718 5717 5717 5716 5715 5715 5714 5712 5711 5710 5708 5706 5705 5703 5700 5698 5697 5695 5692 5690 5689 5687 5685 5683 5681 5680 5678 5677 5675 5674 5672 5671 5669 5668 5667 5665 5664
5708 5707 5707 5707 5706 5706 5705 5705 5704 5704 5703 5702 5701 5700 5699 5697 5696 5694 5692 5691 5689 5687 5685 5684 5682 5681 5679 5678 5676 5675 5673 5672 5670 5669 5668 5666 5665 5664 5662 5661 5659 5658 5656
5696 5695 5695 5695 5694 5694 5693 5693 5692 5691 5690 5689 5689 5687 5686 5685 5684 5682 5681 5679 5678 5676 5675 5673 5672 5671 5670 5668 5667 5666 5665 5664 5663 5661 5660 5659 5657 5656 5655 5653 5652 5650 5649
5684 5684 5684 5683 5683 5682 5682 5681 5680 5679 5678 5677 5676 5675 5674 5672 5671 5670 5669 5668 5667 5666 5664 5663 5662 5661 5660 5660 5659 5658 5657 5656 5655 5654 5652 5651 5649 5648 5646 5645 5643 5642 5640
5673 5673 5673 5672 5671 5671 5670 5669 5668 5667 5666 5665 5664 5663 5662 5661 5660 5659 5658 5657 5656 5655 5654 5654 5653 5652 5652 5651 5650 5649 5649 5648 5646 5646 5644 5643 5641 5639 5638 5636 5634 5633 5631
5663 5662 5662 5661 5660 5659 5658 5657 5656 5655 5654 5653 5652 5651 5650 5649 5649 5648 5647 5647 5646 5645 5645 5645 5644 5644 5643 5642 5642 5641 5640 5639 5638 5636 5635 5633 5632 5630 5628 5627 5625 5623 5621
5651 5651 5650 5650 5649 5648 5647 5645 5644 5643 5642 5641 5640 5640 5639 5638 5638 5637 5637 5637 5637 5636 5636 5636 5635 5635 5634 5634 5633 5632 5631 5630 5629 5627 5625 5624 5622 5621 5619 5617 5615 5613 5611
5640 5640 5639 5638 5638 5637 5635 5634 5633 5632 5631 5630 5629 5629 5628 5628 5628 5627 5627 5627 5627 5627 5627 5627 5627 5626 5625 5625 5624 5623 5622 5621 5619 5618 5616 5614 5612 5610 5608 5607 5604 5602 5600
5629 5629 5628 5627 5627 5626 5625 5624 5622 5622 5621 5620 5619 5619 5619 5618 5618 5618 5618 5618 5618 5618 5618 5618 5618 5617 5617 5616 5615 5614 5612 5611 5609 5608 5606 5604 5602 5600 5598 5596 5594 5591 5589